Simultaneous Nadir Overpasses (SNOs) Predictions

Prediction of SNOs near equator between AQUA and NPP Satellite Orbit:

Table of predicted SNOs near equator for the next 14.0 days since TLE Epoch: 8/30/2019
Index Date (AQUA) Time (AQUA) AQUA Lat,Lon Date (NPP) Time (NPP) NPP Lat,Lon Distance(km) Time Diff (sec)
1 08/31/2019 15:39:09 16.59, -33.37 08/31/2019 15:29:09 16.62, -33.58 22.17 600
2 08/31/2019 16:24:30 -2.03, 137.45 08/31/2019 16:15:40 -1.96, 137.11 38.35 530
3 08/31/2019 17:12:45 -2.57, -53.96 08/31/2019 17:05:10 -2.71, -54.55 68.10 455
4 08/31/2019 18:00:52 7.10, 114.67 08/31/2019 17:54:33 7.27, 113.80 97.21 379
5 09/03/2019 07:52:26 5.00, 85.03 09/03/2019 07:42:46 4.97, 84.87 18.03 580
6 09/03/2019 08:40:34 -0.53,-106.36 09/03/2019 08:32:09 -0.41,-106.77 48.13 505
7 09/03/2019 09:28:48 -4.13, 62.25 09/03/2019 09:21:39 -4.26, 61.57 77.56 429
8 09/06/2019 00:08:30 3.50,-158.77 09/05/2019 23:59:15 3.42,-159.01 27.81 555
9 09/06/2019 00:56:36 1.09, 9.87 09/06/2019 00:48:37 1.19, 9.36 57.63 479
10 09/06/2019 01:44:52 -5.63, 178.45 09/06/2019 01:38:08 -5.80, 177.69 86.95 404
11 09/08/2019 15:38:18 -13.85, 147.25 09/08/2019 15:28:18 -13.88, 147.09 17.96 600
12 09/08/2019 16:24:31 1.89, -42.54 09/08/2019 16:15:42 1.82, -42.87 37.32 529
13 09/08/2019 17:12:38 2.64, 126.08 09/08/2019 17:05:05 2.74, 125.48 67.35 453
14 09/08/2019 18:00:54 -7.18, -65.33 09/08/2019 17:54:36 -7.34, -66.19 96.27 378
15 09/11/2019 07:52:20 -5.00, -94.95 09/11/2019 07:42:41 -4.94, -95.09 17.66 579
16 09/11/2019 08:40:35 0.40, 73.65 09/11/2019 08:32:11 0.28, 73.24 47.12 504
17 09/11/2019 09:28:42 4.13,-117.73 09/11/2019 09:21:34 4.28,-118.40 76.86 428




NCC Satellite Simultaneous Nadir Overpasses (SNOs) Prediction Service
